Location: ?????
(55.6500°N, 37.2500°E)
Time: 04:23:35
(UTC+00:00)

Cosmos 1812 Rocket - Pass Details

Date: 19 May 2025
Orbit: 601 x 624 km, 82.5° (Epoch: 15 June)

Event Time Altitude Azimuth Distance (km) Brightness Sun altitude
Exits shadow 19:11:59 - 181° (S) 2,129 5.8 -9.1°
Reaches altitude 10° 19:12:27 10° 180° (S) 1,943 5.6 -9.2°
Maximum altitude 19:16:42 67° 98° (E) 657 3.5 -9.5°
Drops below altitude 10° 19:21:01 10° 16° (NNE) 1,963 6.8 -9.8°
Sets 19:23:15 0° 14° (NNE) 2,874 7.8 -9.9°
